Location: Arbon
(43.0005°N, 0.7472°E)
Time: 10:07:31
(UTC+00:00)

Tiangong - Pass Details

Date: 30 September 2021
Orbit: 382 x 385 km, 41.5° (Epoch: 17 October)

Event Time Altitude Azimuth Distance (km) Brightness Sun altitude
Exits shadow 04:46:44 24° 246° (WSW) 834 2.2 -13.0°
Maximum altitude 04:48:24 60° 173° (S) 439 1.3 -12.7°
Drops below altitude 10° 04:51:31 10° 92° (E) 1,396 5.4 -12.1°
Sets 04:53:35 0° 89° (E) 2,249 7.1 -11.7°
